FW6644 Weather Reports


Display with metric or nautical units.
time (UTC)temp
F
wind
direction
speed
MPH
gust
MPH
rain 1hr
in
rain 24hr
in
rain mn
in
humidity
%
barometer
mb
20260831071537 81 12 8.0 16.0 0.00 0.11 0.00 69 1008.3
20260831070037 81 35 9.0 16.0 0.00 0.11 0.00 71 1008.0
20260831064532 79 319 5.0 17.0 0.00 0.11 0.11 85 1007.5
20260831063033 77 39 8.0 14.0 0.00 0.11 0.11 91 1007.3
20260831061531 75 314 6.0 18.0 0.00 0.11 0.11 91 1006.9
20260831060029 74 347 4.0 9.0 0.02 0.11 0.11 92 1007.0
20260831054529 74 226 4.0 10.0 0.02 0.11 0.11 92 1006.4
20260831053030 74 300 5.0 12.0 0.02 0.11 0.11 91 1006.4
20260831051525 75 166 1.0 11.0 0.07 0.11 0.11 91 1006.1
20260831050025 76 236 7.0 13.0 0.09 0.09 0.09 91 1006.7
20260831044525 75 256 7.0 17.0 0.09 0.09 0.09 91 1007.0
20260831043023 75 214 10.0 27.0 0.09 0.09 0.09 90 1006.5
20260831041518 78 201 9.0 19.0 0.03 0.03 0.03 86 1006.6
20260831040017 90 172 7.0 18.0 0.00 0.00 0.00 47 1006.2
20260831034519 93 30 10.0 20.0 0.00 0.00 0.00 42 1006.0
20260831033013 100 130 8.0 21.0 0.00 0.00 0.00 32 1005.6
20260831031518 100 352 0.0 3.0 0.00 0.00 0.00 31 1004.8
20260831030011 100 279 0.0 3.0 0.00 0.00 0.00 31 1004.6
20260831024512 100 305 1.0 5.0 0.00 0.00 0.00 31 1004.3
20260831023013 100 277 0.0 4.0 0.00 0.00 0.00 31 1004.2
20260831021510 100 238 0.0 4.0 0.00 0.00 0.00 30 1003.8
20260831020009 101 281 0.0 3.0 0.00 0.00 0.00 30 1003.6
20260831014513 102 158 1.0 3.0 0.00 0.00 0.00 29 1003.4
20260831013009 103 148 1.0 6.0 0.00 0.00 0.00 29 1003.1
20260831011513 103 344 1.0 5.0 0.00 0.00 0.00 28 1003.1
20260831010014 104 145 0.0 2.0 0.00 0.00 0.00 27 1003.3
20260831004505 104 350 4.0 6.0 0.00 0.00 0.00 27 1003.4
20260831003004 106 148 0.0 6.0 0.00 0.00 0.00 26 1003.4
20260831001503 105 150 1.0 4.0 0.00 0.00 0.00 27 1003.4
20260831000002 105 9 0.0 4.0 0.00 0.00 0.00 27 1003.5
20260830234501 106 352 3.0 8.0 0.00 0.00 0.00 26 1003.5
20260830233107 105 120 1.0 8.0 0.00 0.00 0.00 26 1003.6
20260830231607 106 255 4.0 6.0 0.00 0.00 0.00 26 1003.9
20260830230055 105 187 2.0 6.0 0.00 0.00 0.00 26 1004.2
20260830224610 106 124 2.0 7.0 0.00 0.00 0.00 26 1004.4
20260830223054 107 259 2.0 7.0 0.00 0.00 0.00 25 1004.7
20260830221551 106 317 0.0 3.0 0.00 0.00 0.00 26 1005.0
20260830220053 104 94 2.0 5.0 0.00 0.00 0.00 28 1005.2
20260830214552 104 319 4.0 7.0 0.00 0.00 0.00 28 1005.7
20260830213039 105 200 1.0 7.0 0.00 0.00 0.00 27 1006.0
20260830211540 103 112 1.0 6.0 0.00 0.00 0.00 28 1006.3
20260830210036 106 299 1.0 8.0 0.00 0.00 0.00 26 1006.6
20260830204536 106 224 2.0 8.0 0.00 0.00 0.00 26 1006.9
20260830203032 105 323 0.0 6.0 0.00 0.00 0.00 27 1007.1
20260830201531 105 311 0.0 6.0 0.00 0.00 0.00 27 1007.5
20260830200030 105 180 3.0 6.0 0.00 0.00 0.00 28 1007.7
20260830194528 103 288 3.0 7.0 0.00 0.00 0.00 29 1007.8
20260830193026 103 349 0.0 7.0 0.00 0.00 0.00 29 1008.0
20260830191524 102 114 3.0 7.0 0.00 0.00 0.00 30 1008.4
20260830190024 102 131 3.0 9.0 0.00 0.00 0.00 31 1008.7
20260830184520 101 285 1.0 8.0 0.00 0.00 0.00 31 1008.9
20260830183019 101 256 2.0 11.0 0.00 0.00 0.00 32 1009.1
20260830181518 101 163 4.0 9.0 0.00 0.00 0.00 32 1009.3
20260830180015 100 252 1.0 10.0 0.00 0.00 0.00 33 1009.6
20260830174514 99 132 3.0 12.0 0.00 0.00 0.00 34 1009.7
20260830173013 99 186 2.0 10.0 0.00 0.00 0.00 34 1009.7
20260830171512 98 321 2.0 9.0 0.00 0.00 0.00 34 1009.8
20260830170009 98 135 3.0 14.0 0.00 0.00 0.00 35 1009.7
20260830164508 97 273 4.0 12.0 0.00 0.00 0.00 35 1009.8
20260830163006 96 274 1.0 6.0 0.00 0.00 0.00 36 1009.7
20260830161501 95 158 3.0 11.0 0.00 0.00 0.00 38 1009.8
20260830160103 93 163 2.0 8.0 0.00 0.00 0.00 40 1009.8
20260830154600 94 129 2.0 7.0 0.00 0.00 0.00 39 1009.8
20260830153057 94 132 3.0 8.0 0.00 0.00 0.00 38 1009.7
20260830151600 92 103 2.0 8.0 0.00 0.00 0.00 40 1009.8
20260830150054 91 141 2.0 6.0 0.00 0.00 0.00 43 1009.9
20260830144552 89 188 4.0 9.0 0.00 0.00 0.00 44 1009.9
20260830143106 88 91 3.0 8.0 0.00 0.00 0.00 47 1009.8
20260830141546 87 94 1.0 7.0 0.00 0.00 0.00 49 1009.8
20260830140049 86 105 2.0 6.0 0.00 0.00 0.00 51 1009.6
20260830134547 86 115 1.0 3.0 0.00 0.00 0.00 49 1009.4
20260830133044 86 67 1.0 5.0 0.00 0.00 0.00 49 1009.4
20260830131541 86 169 3.0 7.0 0.00 0.00 0.00 48 1009.2
20260830130058 86 120 3.0 8.0 0.00 0.00 0.00 47 1008.8
20260830124535 86 72 3.0 10.0 0.00 0.00 0.00 46 1008.5
20260830123033 86 75 2.0 5.0 0.00 0.00 0.00 46 1008.2
20260830121534 86 120 1.0 5.0 0.00 0.00 0.00 47 1007.9
20260830120031 86 115 1.0 4.0 0.00 0.00 0.00 48 1007.7
20260830114531 85 146 0.0 4.0 0.00 0.00 0.00 51 1007.7
20260830113030 85 181 0.0 3.0 0.00 0.00 0.00 51 1007.7
20260830111530 85 141 1.0 6.0 0.00 0.00 0.00 51 1007.7
20260830110030 85 186 1.0 5.0 0.00 0.00 0.00 51 1007.8
20260830104526 85 215 1.0 5.0 0.00 0.00 0.00 50 1007.8
20260830103024 86 146 1.0 8.0 0.00 0.00 0.00 49 1007.8
20260830101520 88 150 0.0 3.0 0.00 0.00 0.00 47 1007.7
20260830100017 88 39 0.0 3.0 0.00 0.00 0.00 46 1007.5
20260830094525 89 43 2.0 5.0 0.00 0.00 0.00 46 1007.2
20260830093012 89 105 0.0 7.0 0.00 0.00 0.00 44 1007.0
20260830091512 89 340 3.0 6.0 0.00 0.00 0.00 43 1006.8
20260830090011 89 51 1.0 4.0 0.00 0.00 0.00 44 1006.7
20260830084510 89 359 3.0 5.0 0.00 0.00 0.00 43 1006.9
20260830083009 89 333 1.0 3.0 0.00 0.00 0.00 42 1006.8
20260830081524 89 225 0.0 1.0 0.00 0.00 0.00 42 1006.7
20260830080007 89 180 0.0 2.0 0.00 0.00 0.00 41 1006.4
20260830074506 90 179 0.0 5.0 0.00 0.00 0.00 41 1006.4
20260830073006 90 117 1.0 5.0 0.00 0.00 0.00 41 1006.4